EW2058 Weather Reports


time (UTC)temp
F
wind
direction
speed
knots
gust
knots
rain 1hr
in
rain 24hr
in
rain mn
in
humidity
%
barometer
mb
20220629041803 78 307 8.7 13.0 0.00 0.00 0.00 24 1016.8
20220629041304 78 307 10.4 13.0 0.00 0.00 0.00 24 1016.6
20220629040803 79 313 11.3 17.4 0.00 0.00 0.00 23 1016.5
20220629040304 79 297 10.4 13.0 0.00 0.00 0.00 23 1016.1
20220629035804 79 290 10.4 12.2 0.00 0.00 0.00 20 1016.1
20220629035303 79 291 7.8 12.2 0.00 0.00 0.00 20 1016.1
20220629034804 80 288 7.8 11.3 0.00 0.00 0.00 19 1016.1
20220629034304 81 294 7.8 12.2 0.00 0.00 0.00 18 1016.1
20220629033804 81 295 8.7 12.2 0.00 0.00 0.00 18 1015.9
20220629033304 80 292 10.4 12.2 0.00 0.00 0.00 18 1015.8
20220629032804 81 286 8.7 13.0 0.00 0.00 0.00 18 1015.8
20220629032304 81 293 10.4 13.0 0.00 0.00 0.00 17 1015.8
20220629031804 82 283 12.2 14.8 0.00 0.00 0.00 17 1015.8
20220629031303 82 279 10.4 13.0 0.00 0.00 0.00 16 1015.8
20220629030804 81 278 10.4 13.0 0.00 0.00 0.00 17 1015.8
20220629030304 82 275 8.7 12.2 0.00 0.00 0.00 18 1015.8
20220629025804 82 275 8.7 11.3 0.00 0.00 0.00 19 1015.8
20220629025304 82 267 7.8 10.4 0.00 0.00 0.00 19 1015.8
20220629024803 82 259 7.8 8.7 0.00 0.00 0.00 19 1015.8
20220629024304 82 258 7.0 8.7 0.00 0.00 0.00 19 1015.8
20220629023804 82 255 7.8 10.4 0.00 0.00 0.00 19 1015.8
20220629023304 83 263 7.8 8.7 0.00 0.00 0.00 18 1015.8
20220629022803 83 267 8.7 10.4 0.00 0.00 0.00 17 1015.8
20220629022304 83 270 8.7 12.2 0.00 0.00 0.00 17 1015.8
20220629021804 83 268 8.7 10.4 0.00 0.00 0.00 18 1015.8
20220629021304 84 262 7.0 7.8 0.00 0.00 0.00 19 1015.8
20220629020803 85 261 8.7 10.4 0.00 0.00 0.00 18 1015.8
20220629020304 86 263 7.8 10.4 0.00 0.00 0.00 17 1015.8
20220629015804 86 259 7.0 8.7 0.00 0.00 0.00 15 1015.8
20220629015304 87 279 5.2 6.1 0.00 0.00 0.00 17 1015.8
20220629014803 87 272 6.1 7.0 0.00 0.00 0.00 17 1015.8
20220629014304 87 267 5.2 5.2 0.00 0.00 0.00 19 1015.8
20220629013804 88 272 2.6 4.3 0.00 0.00 0.00 19 1015.8
20220629013304 87 277 3.5 4.3 0.00 0.00 0.00 17 1015.8
20220629012804 87 290 3.5 5.2 0.00 0.00 0.00 19 1015.8
20220629012304 88 275 5.2 7.8 0.00 0.00 0.00 19 1015.8
20220629011803 88 301 1.7 4.3 0.00 0.00 0.00 19 1015.8
20220629011304 87 328 4.3 6.1 0.00 0.00 0.00 16 1015.8
20220629010804 88 293 3.5 6.1 0.00 0.00 0.00 17 1015.8
20220629010304 87 2 5.2 8.7 0.00 0.00 0.00 14 1015.8
20220629005804 86 291 5.2 7.0 0.00 0.00 0.00 22 1015.8
20220629005303 87 269 7.8 12.2 0.00 0.00 0.00 18 1015.8
20220629004804 87 269 8.7 10.4 0.00 0.00 0.00 15 1016.1
20220629004304 88 274 7.0 8.7 0.00 0.00 0.00 17 1016.1
20220629003804 89 252 5.2 6.1 0.00 0.00 0.00 16 1016.1
20220629003304 90 266 2.6 2.6 0.00 0.00 0.00 17 1016.1
20220629002804 88 313 0.9 2.6 0.00 0.00 0.00 17 1016.1
20220629002303 88 287 4.3 5.2 0.00 0.00 0.00 16 1016.1
20220629001804 89 304 1.7 2.6 0.00 0.00 0.00 17 1016.3
20220629001304 89 9 1.7 4.3 0.00 0.00 0.00 15 1016.3
20220629000804 89 304 2.6 5.2 0.00 0.00 0.00 16 1016.5
20220629000304 88 21 2.6 5.2 0.00 0.00 0.00 17 1016.5
20220628235803 88 77 2.6 5.2 0.00 0.00 0.00 17 1016.5
20220628235304 88 111 3.5 4.3 0.00 0.00 0.00 15 1016.5
20220628234804 88 86 2.6 4.3 0.00 0.00 0.00 15 1016.6
20220628234304 87 34 2.6 5.2 0.00 0.00 0.00 16 1016.8
20220628233803 88 95 4.3 7.8 0.00 0.00 0.00 15 1016.8
20220628233304 88 80 4.3 7.0 0.00 0.00 0.00 17 1016.8
20220628232803 88 65 3.5 5.2 0.00 0.00 0.00 15 1016.8
20220628232304 87 75 5.2 7.0 0.00 0.00 0.00 15 1017.0
20220628231804 87 68 5.2 7.8 0.00 0.00 0.00 16 1017.1
20220628231304 87 50 4.3 11.3 0.00 0.00 0.00 16 1017.1
20220628230803 87 60 7.8 8.7 0.00 0.00 0.00 14 1017.1
20220628230304 87 3 7.0 10.4 0.00 0.00 0.00 14 1017.1
20220628225804 87 20 6.1 8.7 0.00 0.00 0.00 16 1017.1
20220628225304 87 43 7.0 13.0 0.00 0.00 0.00 15 1017.5
20220628224803 87 56 8.7 12.2 0.00 0.00 0.00 16 1017.2
20220628224304 87 81 6.1 10.4 0.00 0.00 0.00 17 1017.5
20220628223804 87 65 6.1 10.4 0.00 0.00 0.00 16 1017.5
20220628223303 87 69 8.7 12.2 0.00 0.00 0.00 16 1017.5
20220628222804 87 64 5.2 11.3 0.00 0.00 0.00 17 1017.5
20220628222304 87 90 8.7 13.9 0.00 0.00 0.00 15 1017.5
20220628221804 87 120 6.1 8.7 0.00 0.00 0.00 16 1017.8
20220628221304 87 130 7.8 11.3 0.00 0.00 0.00 14 1017.8
20220628220804 86 58 5.2 11.3 0.00 0.00 0.00 15 1017.8
20220628220304 86 87 7.0 10.4 0.00 0.00 0.00 15 1017.9
20220628215804 87 58 6.1 10.4 0.00 0.00 0.00 14 1018.1
20220628215304 88 42 1.7 5.2 0.00 0.00 0.00 16 1018.1
20220628214804 86 107 3.5 8.7 0.00 0.00 0.00 16 1018.1
20220628214304 86 68 6.1 7.8 0.00 0.00 0.00 14 1018.5
20220628213804 87 39 4.3 7.0 0.00 0.00 0.00 16 1018.5
20220628213304 86 37 4.3 8.7 0.00 0.00 0.00 15 1018.5
20220628212804 86 45 7.8 11.3 0.00 0.00 0.00 14 1018.5
20220628212304 86 18 4.3 7.8 0.00 0.00 0.00 16 1018.5
20220628211804 87 119 4.3 6.1 0.00 0.00 0.00 15 1018.6
20220628211304 87 149 4.3 7.0 0.00 0.00 0.00 14 1018.8
20220628210804 86 111 4.3 6.1 0.00 0.00 0.00 14 1018.8
20220628210303 86 86 5.2 7.0 0.00 0.00 0.00 15 1018.8
20220628205804 86 106 1.7 5.2 0.00 0.00 0.00 14 1018.8
20220628205303 86 97 5.2 8.7 0.00 0.00 0.00 14 1018.8
20220628204803 86 127 5.2 7.8 0.00 0.00 0.00 17 1018.8
20220628204303 86 120 5.2 7.0 0.00 0.00 0.00 16 1018.8
20220628203804 87 129 5.2 7.8 0.00 0.00 0.00 15 1019.0
20220628203304 87 199 3.5 7.0 0.00 0.00 0.00 15 1019.2
20220628202804 87 271 5.2 7.8 0.00 0.00 0.00 14 1019.2
20220628202303 86 275 4.3 7.0 0.00 0.00 0.00 14 1019.2
20220628201804 86 210 5.2 8.7 0.00 0.00 0.00 15 1019.2
20220628201303 85 186 6.1 10.4 0.00 0.00 0.00 15 1019.3
20220628200804 85 248 4.3 8.7 0.00 0.00 0.00 16 1019.5
20220628200303 86 244 5.2 11.3 0.00 0.00 0.00 17 1019.5
20220628195804 85 267 5.2 7.8 0.00 0.00 0.00 17 1019.5
20220628195304 85 280 6.1 10.4 0.00 0.00 0.00 18 1019.5
20220628194803 85 261 6.1 8.7 0.00 0.00 0.00 16 1019.5
20220628194303 84 265 6.1 7.8 0.00 0.00 0.00 17 1019.7
20220628193803 83 271 5.2 7.0 0.00 0.00 0.00 18 1019.8
20220628193304 84 259 3.5 7.8 0.00 0.00 0.00 20 1019.8
20220628192804 84 222 6.1 7.8 0.00 0.00 0.00 17 1019.8
20220628192304 83 220 7.8 10.4 0.00 0.00 0.00 16 1019.8
20220628191804 82 248 6.1 8.7 0.00 0.00 0.00 18 1019.8
20220628191303 82 246 7.8 11.3 0.00 0.00 0.00 19 1020.2
20220628190803 83 252 7.8 11.3 0.00 0.00 0.00 17 1020.2
20220628190303 82 253 7.8 10.4 0.00 0.00 0.00 18 1020.2
20220628185803 82 246 5.2 8.7 0.00 0.00 0.00 18 1020.2
20220628185304 83 219 7.0 10.4 0.00 0.00 0.00 18 1020.2
20220628184804 83 251 7.8 10.4 0.00 0.00 0.00 17 1020.2
20220628184304 83 213 6.1 11.3 0.00 0.00 0.00 18 1020.2
20220628183804 83 251 7.0 10.4 0.00 0.00 0.00 18 1020.2
20220628183303 84 258 3.5 7.8 0.00 0.00 0.00 18 1020.2
20220628182804 84 200 1.7 4.3 0.00 0.00 0.00 20 1020.2
20220628182303 83 103 4.3 7.0 0.00 0.00 0.00 19 1020.2
20220628181804 83 222 4.3 6.1 0.00 0.00 0.00 18 1020.2
20220628181304 83 358 1.7 10.4 0.00 0.00 0.00 23 1020.2
20220628180804 82 230 2.6 7.8 0.00 0.00 0.00 18 1020.2
20220628180303 81 254 5.2 7.8 0.00 0.00 0.00 25 1020.2
20220628175804 82 54 4.3 6.1 0.00 0.00 0.00 25 1020.2
20220628175304 82 97 3.5 5.2 0.00 0.00 0.00 24 1020.2
20220628174804 80 62 1.7 7.8 0.00 0.00 0.00 26 1020.2
20220628174303 79 79 7.8 10.4 0.00 0.00 0.00 27 1020.2
20220628173803 80 69 2.6 7.0 0.00 0.00 0.00 30 1020.2
20220628173304 79 359 2.6 5.2 0.00 0.00 0.00 27 1020.2
20220628172804 79 28 5.2 7.0 0.00 0.00 0.00 25 1020.2
20220628172304 78 14 4.3 7.0 0.00 0.00 0.00 34 1020.2
20220628171804 79 35 4.3 7.0 0.00 0.00 0.00 26 1020.2
20220628171304 80 59 4.3 7.0 0.00 0.00 0.00 26 1020.2
20220628170804 79 356 4.3 7.0 0.00 0.00 0.00 26 1020.2
20220628170303 78 13 5.2 7.0 0.00 0.00 0.00 32 1020.2
20220628165804 76 19 5.2 7.0 0.00 0.00 0.00 34 1020.2
20220628165304 76 0 4.3 6.1 0.00 0.00 0.00 39 1020.2
20220628164804 75 25 4.3 6.1 0.00 0.00 0.00 40 1020.2
20220628164304 76 30 4.3 6.1 0.00 0.00 0.00 41 1020.2
20220628163804 76 18 4.3 7.0 0.00 0.00 0.00 42 1020.2
20220628163303 78 44 5.2 6.1 0.00 0.00 0.00 41 1020.2
20220628162804 78 31 2.6 5.2 0.00 0.00 0.00 39 1020.2
20220628162304 76 69 2.6 4.3 0.00 0.00 0.00 39 1020.2
20220628161803 78 68 2.6 4.3 0.00 0.00 0.00 38 1020.2
20220628161303 77 161 1.7 2.6 0.00 0.00 0.00 39 1020.2
20220628160804 75 241 1.7 2.6 0.00 0.00 0.00 41 1020.2
20220628160305 73 123 0.9 4.3 0.00 0.00 0.00 43 1020.2
20220628155804 74 92 3.5 4.3 0.00 0.00 0.00 44 1020.2
20220628155304 73 153 0.9 4.3 0.00 0.00 0.00 44 1020.2
20220628154804 72 66 4.3 6.1 0.00 0.00 0.00 43 1020.2
20220628154303 73 20 4.3 5.2 0.00 0.00 0.00 45 1020.2
20220628153804 74 57 2.6 5.2 0.00 0.00 0.00 42 1020.2
20220628153304 74 41 4.3 7.8 0.00 0.00 0.00 40 1020.2
20220628152804 76 116 2.6 7.0 0.00 0.00 0.00 34 1020.2
20220628152304 74 211 4.3 5.2 0.00 0.00 0.00 32 1020.2
20220628151804 73 195 2.6 4.3 0.00 0.00 0.00 31 1020.2
20220628151303 72 221 4.3 5.2 0.00 0.00 0.00 35 1020.2
20220628150803 70 230 4.3 5.2 0.00 0.00 0.00 43 1020.2
20220628150304 70 203 2.6 2.6 0.00 0.00 0.00 45 1020.2
20220628145804 70 321 4.3 5.2 0.00 0.00 0.00 43 1020.2
20220628145304 70 294 2.6 4.3 0.00 0.00 0.00 37 1019.9
20220628144804 69 285 1.7 2.6 0.00 0.00 0.00 43 1020.2
20220628144304 69 65 2.6 4.3 0.00 0.00 0.00 44 1020.2
20220628143803 72 138 4.3 7.0 0.00 0.00 0.00 40 1020.2
20220628143304 70 219 2.6 5.2 0.00 0.00 0.00 44 1020.2
20220628142804 69 107 0.9 5.2 0.00 0.00 0.00 43 1020.2
20220628142304 73 106 2.6 7.0 0.00 0.00 0.00 38 1019.8
20220628141804 72 245 1.7 1.7 0.00 0.00 0.00 28 1020.2
20220628141304 71 159 1.7 4.3 0.00 0.00 0.00 29 1020.0
20220628140803 70 205 2.6 5.2 0.00 0.00 0.00 30 1020.2
20220628140304 69 225 4.3 6.1 0.00 0.00 0.00 33 1019.8
20220628135804 67 225 4.3 6.1 0.00 0.00 0.00 40 1019.8
20220628135303 66 254 3.5 5.2 0.00 0.00 0.00 47 1019.8
20220628134804 68 215 2.6 4.3 0.00 0.00 0.00 42 1019.8
20220628134304 70 192 1.7 2.6 0.00 0.00 0.00 36 1019.8
20220628133804 71 75 0.9 2.6 0.00 0.00 0.00 37 1019.8
20220628133304 72 196 1.7 2.6 0.00 0.00 0.00 31 1019.8
20220628132804 71 216 0.9 1.7 0.00 0.00 0.00 32 1019.8
20220628132304 71 94 3.5 5.2 0.00 0.00 0.00 28 1019.8
20220628131803 71 3 2.6 5.2 0.00 0.00 0.00 25 1019.8
20220628131304 70 258 3.5 5.2 0.00 0.00 0.00 26 1019.5
20220628130804 69 255 2.6 4.3 0.00 0.00 0.00 29 1019.5
20220628130304 71 154 2.6 4.3 0.00 0.00 0.00 27 1019.5
20220628125804 71 252 2.6 4.3 0.00 0.00 0.00 23 1019.5
20220628125304 71 241 2.6 4.3 0.00 0.00 0.00 24 1019.2
20220628124804 71 240 2.6 2.6 0.00 0.00 0.00 24 1019.2
20220628124304 71 243 2.6 4.3 0.00 0.00 0.00 25 1019.2
20220628123804 72 187 2.6 4.3 0.00 0.00 0.00 25 1019.2
20220628123303 73 230 4.3 5.2 0.00 0.00 0.00 22 1019.2
20220628122803 73 214 2.6 8.7 0.00 0.00 0.00 23 1019.2
20220628122304 72 265 3.5 6.1 0.00 0.00 0.00 26 1019.2
20220628121804 71 133 1.7 4.3 0.00 0.00 0.00 28 1019.2
20220628121304 71 72 1.7 4.3 0.00 0.00 0.00 28 1019.2
20220628120804 71 37 1.7 2.6 0.00 0.00 0.00 29 1019.2
20220628120304 71 34 2.6 4.3 0.00 0.00 0.00 30 1019.0
20220628115803 71 42 2.6 4.3 0.00 0.00 0.00 30 1019.2
20220628115304 71 25 5.2 6.1 0.00 0.00 0.00 29 1019.2
20220628114803 71 27 4.3 5.2 0.00 0.00 0.00 30 1018.8
20220628114304 71 34 5.2 7.8 0.00 0.00 0.00 28 1018.8
20220628113804 71 30 5.2 6.1 0.00 0.00 0.00 30 1018.8
20220628113304 71 33 2.6 5.2 0.00 0.00 0.00 31 1018.8
20220628112804 71 39 2.6 4.3 0.00 0.00 0.00 31 1018.8
20220628112303 70 32 2.6 4.3 0.00 0.00 0.00 31 1018.8
20220628111804 71 59 2.6 4.3 0.00 0.00 0.00 32 1018.7
20220628111304 73 155 1.7 4.3 0.00 0.00 0.00 27 1018.5
20220628110803 73 170 2.6 4.3 0.00 0.00 0.00 27 1018.5
20220628110304 72 233 2.6 4.3 0.00 0.00 0.00 29 1018.5
20220628105804 72 61 2.6 5.2 0.00 0.00 0.00 30 1018.5
20220628105304 74 94 1.7 2.6 0.00 0.00 0.00 27 1018.5
20220628104804 73 16 1.7 4.3 0.00 0.00 0.00 28 1018.5
20220628104304 74 54 2.6 4.3 0.00 0.00 0.00 28 1018.5
20220628103803 75 137 4.3 7.0 0.00 0.00 0.00 26 1018.5
20220628103304 77 139 3.5 7.8 0.00 0.00 0.00 23 1018.5
20220628102803 79 208 4.3 15.6 0.00 0.00 0.00 22 1018.5
20220628102304 80 240 13.9 18.2 0.00 0.00 0.00 20 1018.5
20220628101804 80 215 8.7 14.8 0.00 0.00 0.00 20 1018.5
20220628101303 80 231 10.4 17.4 0.00 0.00 0.00 19 1018.5
20220628100804 80 233 7.8 15.6 0.00 0.00 0.00 20 1018.5
20220628100304 82 229 10.4 17.4 0.00 0.00 0.00 19 1018.5
20220628095804 81 232 12.2 15.6 0.00 0.00 0.00 19 1018.4
20220628095304 81 232 11.3 14.8 0.00 0.00 0.00 19 1018.3
20220628094803 78 220 11.3 17.4 0.00 0.00 0.00 21 1018.2
20220628094304 75 197 5.2 10.4 0.00 0.00 0.00 26 1018.4
20220628093804 74 116 1.7 2.6 0.00 0.00 0.00 28 1018.2
20220628093304 74 8 1.7 5.2 0.00 0.00 0.00 27 1018.1
20220628092804 74 145 1.7 4.3 0.00 0.00 0.00 27 1018.1
20220628092303 74 281 2.6 5.2 0.00 0.00 0.00 27 1018.1
20220628091804 75 336 4.3 7.0 0.00 0.00 0.00 27 1018.1
20220628091304 74 338 5.2 7.0 0.00 0.00 0.00 28 1018.1
20220628090803 73 316 5.2 7.0 0.00 0.00 0.00 30 1018.1
20220628090304 73 343 5.2 7.8 0.00 0.00 0.00 30 1018.1
20220628085803 73 330 4.3 7.8 0.00 0.00 0.00 30 1018.5
20220628085303 73 356 7.8 8.7 0.00 0.00 0.00 30 1018.2
20220628084804 74 341 4.3 6.1 0.00 0.00 0.00 29 1018.1
20220628084304 73 25 2.6 2.6 0.00 0.00 0.00 30 1018.2
20220628083803 73 50 2.6 2.6 0.00 0.00 0.00 31 1018.5
20220628083304 74 90 1.7 2.6 0.00 0.00 0.00 30 1018.5
20220628082804 73 167 0.9 1.7 0.00 0.00 0.00 30 1018.5
20220628082304 73 269 1.7 2.6 0.00 0.00 0.00 30 1018.5
20220628081804 73 290 2.6 4.3 0.00 0.00 0.00 30 1018.5
20220628081304 73 262 4.3 5.2 0.00 0.00 0.00 31 1018.5
20220628080803 75 281 2.6 5.2 0.00 0.00 0.00 28 1018.5
20220628080304 75 334 6.1 8.7 0.00 0.00 0.00 28 1018.5
20220628075804 75 320 5.2 7.0 0.00 0.00 0.00 27 1018.1
20220628075304 76 334 6.1 7.0 0.00 0.00 0.00 26 1018.1
20220628074804 76 349 4.3 6.1 0.00 0.00 0.00 26 1018.1
20220628074304 76 322 3.5 4.3 0.00 0.00 0.00 27 1018.1
20220628073804 76 327 2.6 4.3 0.00 0.00 0.00 27 1018.1
20220628073304 76 2 3.5 4.3 0.00 0.00 0.00 27 1018.1
20220628072804 76 2 3.5 5.2 0.00 0.00 0.00 27 1018.1
20220628072303 76 1 4.3 5.2 0.00 0.00 0.00 27 1018.1
20220628071804 75 335 3.5 5.2 0.00 0.00 0.00 27 1018.1
20220628071304 75 286 2.6 5.2 0.00 0.00 0.00 28 1018.1
20220628070803 75 336 3.5 6.1 0.00 0.00 0.00 28 1018.1
20220628070304 75 304 5.2 6.1 0.00 0.00 0.00 28 1018.1
20220628065804 75 341 4.3 5.2 0.00 0.00 0.00 28 1018.1
20220628065303 76 0 1.7 6.1 0.00 0.00 0.00 26 1018.1
20220628064804 77 354 5.2 7.0 0.00 0.00 0.00 26 1018.1
20220628064304 77 307 5.2 7.8 0.00 0.00 0.00 26 1018.1
20220628063804 78 341 6.1 7.0 0.00 0.00 0.00 25 1018.1
20220628063304 78 343 4.3 6.1 0.00 0.00 0.00 24 1018.1
20220628062804 79 5 5.2 6.1 0.00 0.00 0.00 24 1018.1
20220628062303 79 329 5.2 5.2 0.00 0.00 0.00 22 1018.1
20220628061804 80 343 4.3 5.2 0.00 0.00 0.00 21 1018.1
20220628061304 80 290 1.7 2.6 0.00 0.00 0.00 20 1018.1
20220628060804 79 293 1.7 2.6 0.00 0.00 0.00 21 1018.1
20220628060304 80 280 2.6 2.6 0.00 0.00 0.00 20 1018.1
20220628055804 80 249 1.7 4.3 0.00 0.00 0.00 20 1018.1
20220628055304 79 263 2.6 4.3 0.00 0.00 0.00 20 1018.1
20220628054804 79 265 2.6 5.2 0.00 0.00 0.00 21 1018.1
20220628054304 79 249 1.7 2.6 0.00 0.00 0.00 21 1018.1
20220628053803 80 255 2.6 4.3 0.00 0.00 0.00 21 1018.1
20220628053304 80 237 1.7 2.6 0.00 0.00 0.00 20 1018.1
20220628052804 80 218 1.7 4.3 0.00 0.00 0.00 20 1018.1
20220628052304 80 218 2.6 4.3 0.00 0.00 0.00 20 1018.1
20220628051804 79 235 2.6 6.1 0.00 0.00 0.00 21 1018.2
20220628051303 79 236 3.5 5.2 0.00 0.00 0.00 22 1018.2
20220628050804 80 192 4.3 5.2 0.00 0.00 0.00 21 1018.5
20220628050304 80 224 2.6 6.1 0.00 0.00 0.00 21 1018.5
20220628045804 79 205 1.7 4.3 0.00 0.00 0.00 21 1018.5
20220628045304 79 242 2.6 5.2 0.00 0.00 0.00 22 1018.5
20220628044804 78 216 3.5 5.2 0.00 0.00 0.00 23 1018.5
20220628044304 79 214 2.6 5.2 0.00 0.00 0.00 23 1018.5
20220628043804 80 226 2.6 7.0 0.00 0.00 0.00 21 1018.5
20220628043304 80 234 4.3 6.1 0.00 0.00 0.00 21 1018.5
20220628042804 80 236 2.6 5.2 0.00 0.00 0.00 22 1018.5
20220628042304 80 229 3.5 5.2 0.00 0.00 0.00 22 1018.5